"Pseudo-MPEC" for P21DeD3

Created 2023 Feb 7 15:22:07 UT using Find_Orb

Click here for an explanation of pseudo-MPECs

 
 Astrometry: 
     P21DeD3* C2023 01 24qsQSEAstrometryG0I,cv]sWcQWPr]sDtredacted;j_IqQRsWK$F52
     P21DeD3  C2023 01 24eJKONX8$o2[X=8biu63IZLrQ)$*V5/[4,)bdBfYTGkK:.;iD(9$/F52
     P21DeD3  C2023 01 24e/8imn%#OY7\cy_?49@clickYZg3JecCK(ScrF1Q#ad:w'mQff?YF52
     P21DeD3  C2023 01 24-yxg@e7`'T),76Ic][n`vXUM:$ix:vQlcqWU19c;EQoch*WOZj^-F52
     P21DeD3  C2023 01 24*`hereedOcX%:Jif\xwua8tforDCY2'k;a[yexplanationn?:Z]F52

Station data:
(F52) Pan-STARRS 2, Haleakala  (N20.707382 W156.255910)  US/Hawaii.
   Observers J. Bulger, T. Dukes, T. Lowe, A. Schultz, M. Willman. Measurers
   K. Chambers, S. Chastel, T. de Boer, L. Denneau, J. Fairlamb, H.
   Flewelling, M. Huber, C.-C. Lin, E. Magnier, Y. Ramanjooloo, R. Wainscoat,
   R. Weryk. 1.8-m Ritchey-Chrétien + CCD.

Orbital elements:  P21DeD3
   Perihelion 2023 Dec 21.45774 +/- 248 TT = 10:59:08 (JD 2460299.95774)
Epoch 2023 Jan 24.0 TT = JDT 2459968.5   Earth MOID: 0.8351      AutoNEOCP
M 236.22962706 +/- 100              (J2000 ecliptic)
n   0.37341223 +/- 0.223            Peri.  275.51842 +/- 80
a   1.90989880 +/- 0.76             Node   334.80081 +/- 39
e   0.0839450 +/- 0.272             Incl.   22.94102 +/- 28
P   2.64/964.06d           H 19.49  G  0.15   U 11.7  SR
q 1.74957217 +/- 0.826    Q 2.07022542 +/- 38.5
From 5 observations 2023 Jan. 24 (4.6 hr); mean residual 0".11
Residuals in arcseconds: 
230124 F52  .09+  .06-    230124 F52  .17+  .12+    230124 F52  .06-  .02+    
230124 F52  .25-  .05-    230124 F52  .06+  .03-    

Ephemerides (geocentric):
Date (UTC) HH   RA             Dec           delta  r     elong  mag " sig PA
---- --------  ------------   ------------  ------ ------ -----  --- --------
2023 02 07 15  08 03 46.255   +42 21 40.64  1.0891 1.9957 148.1 22.1 4522 143
2023 02 07 16  08 03 41.870   +42 21 06.59  1.0892 1.9957 148.1 22.1 4560 143
2023 02 07 17  08 03 37.490   +42 20 32.50  1.0894 1.9957 148.1 22.1 4598 143
2023 02 07 18  08 03 33.115   +42 19 58.38  1.0895 1.9956 148.0 22.1 4637 143
2023 02 07 19  08 03 28.745   +42 19 24.21  1.0896 1.9956 148.0 22.1 4676 143
2023 02 07 20  08 03 24.379   +42 18 50.01  1.0897 1.9956 148.0 22.1 4715 143
2023 02 07 21  08 03 20.019   +42 18 15.76  1.0898 1.9955 147.9 22.1 4755 143
2023 02 07 22  08 03 15.663   +42 17 41.48  1.0900 1.9955 147.9 22.1 4794 143
2023 02 07 23  08 03 11.313   +42 17 07.16  1.0901 1.9955 147.9 22.1 4835 142
2023 02 08 00  08 03 06.967   +42 16 32.80  1.0902 1.9954 147.8 22.1 4875 142
2023 02 08 01  08 03 02.626   +42 15 58.40  1.0903 1.9954 147.8 22.1 4916 142
2023 02 08 02  08 02 58.290   +42 15 23.96  1.0904 1.9954 147.8 22.1 4957 142
2023 02 08 03  08 02 53.959   +42 14 49.48  1.0906 1.9953 147.7 22.1 4999 142
2023 02 08 04  08 02 49.632   +42 14 14.96  1.0907 1.9953 147.7 22.1 5041 142
2023 02 08 05  08 02 45.311   +42 13 40.41  1.0908 1.9953 147.7 22.1 5083 142
2023 02 08 06  08 02 40.995   +42 13 05.82  1.0909 1.9952 147.6 22.1 5126 142
2023 02 08 07  08 02 36.683   +42 12 31.19  1.0911 1.9952 147.6 22.1 5169 142
2023 02 08 08  08 02 32.377   +42 11 56.52  1.0912 1.9951 147.6 22.1 5213 142
2023 02 08 09  08 02 28.076   +42 11 21.81  1.0913 1.9951 147.5 22.1 5257 141
2023 02 08 10  08 02 23.779   +42 10 47.06  1.0914 1.9951 147.5 22.1 5301 141
2023 02 08 11  08 02 19.488   +42 10 12.28  1.0916 1.9950 147.5 22.1 5346 141
2023 02 08 12  08 02 15.201   +42 09 37.46  1.0917 1.9950 147.4 22.1 5391 141
2023 02 08 13  08 02 10.919   +42 09 02.60  1.0918 1.9950 147.4 22.1 5436 141
2023 02 08 14  08 02 06.643   +42 08 27.70  1.0919 1.9949 147.4 22.1 5482 141
2023 02 08 15  08 02 02.371   +42 07 52.77  1.0921 1.9949 147.4 22.1 5529 141
2023 02 08 16  08 01 58.105   +42 07 17.79  1.0922 1.9949 147.3 22.1 5576 141
2023 02 08 17  08 01 53.843   +42 06 42.78  1.0923 1.9948 147.3 22.1 5623 141
2023 02 08 18  08 01 49.587   +42 06 07.74  1.0924 1.9948 147.3 22.1 5671 140
2023 02 08 19  08 01 45.336   +42 05 32.65  1.0926 1.9948 147.2 22.1 5719 140
2023 02 08 20  08 01 41.089   +42 04 57.53  1.0927 1.9947 147.2 22.1 5767 140
2023 02 08 21  08 01 36.848   +42 04 22.37  1.0928 1.9947 147.2 22.1 5816 140
2023 02 08 22  08 01 32.612   +42 03 47.17  1.0930 1.9946 147.1 22.1 5866 140
2023 02 08 23  08 01 28.380   +42 03 11.94  1.0931 1.9946 147.1 22.1 5916 140
2023 02 09 00  08 01 24.154   +42 02 36.67  1.0932 1.9946 147.1 22.1 5966 140
2023 02 09 01  08 01 19.933   +42 02 01.36  1.0934 1.9945 147.0 22.1 6017 140
2023 02 09 02  08 01 15.717   +42 01 26.01  1.0935 1.9945 147.0 22.1 6069 140
2023 02 09 03  08 01 11.507   +42 00 50.63  1.0936 1.9945 147.0 22.1 6121 140
2023 02 09 04  08 01 07.301   +42 00 15.21  1.0938 1.9944 146.9 22.1 6173 139
2023 02 09 05  08 01 03.100   +41 59 39.76  1.0939 1.9944 146.9 22.1 6226 139
2023 02 09 06  08 00 58.905   +41 59 04.27  1.0940 1.9944 146.9 22.1 6280 139
2023 02 09 07  08 00 54.714   +41 58 28.74  1.0942 1.9943 146.8 22.1 6333 139
2023 02 09 08  08 00 50.529   +41 57 53.17  1.0943 1.9943 146.8 22.1 6388 139
2023 02 09 09  08 00 46.349   +41 57 17.57  1.0944 1.9943 146.8 22.1 6443 139
2023 02 09 10  08 00 42.174   +41 56 41.93  1.0946 1.9942 146.7 22.1 6499 139
2023 02 09 11  08 00 38.005   +41 56 06.26  1.0947 1.9942 146.7 22.1 6555 139
2023 02 09 12  08 00 33.840   +41 55 30.55  1.0948 1.9942 146.7 22.1 6612 139
2023 02 09 13  08 00 29.681   +41 54 54.81  1.0950 1.9941 146.6 22.1 6669 138
2023 02 09 14  08 00 25.526   +41 54 19.02  1.0951 1.9941 146.6 22.1 6727 138